Aérodrome :
LOGIN :

S'inscrire | Disclaimer

   EN    FR    IT 

 










Légende :    VFR   VFR Marginal   IFR   IFR Intensif   IFR Très Intensif
Visi : 
Plafond : 
>= 8 km
>= 3000ft
5 à 8 km
1000 à 3000 ft
1500m à 5 km
500 à 1000 ft
800 à 1500m
200 à 500 ft
< 800m
< 200 ft
Symboles :   Orages  Brouillard  Fortes neiges  Fortes précipitations  Vent > 20 kt
SIGMETs :   Divers  Orages  Givrage  Turbulence  Onde Orograph.  Cendres Volcan.






- Altitude de l'aérodrome : 364 ft
- Code IATA : FRA


EDDF - Frankfurt Int.

DERNIER METAR :
  • 061950Z VRB02KT CAVOK 13/03 Q1024 NOSIG

METARs EXPIRÉS :
  • 061920Z 19004KT 160V260 CAVOK 14/03 Q1024 NOSIG
  • 061850Z 20004KT CAVOK 15/03 Q1023 NOSIG
  • 061820Z 19005KT CAVOK 18/02 Q1023 NOSIG
  • 061720Z 19006KT 150V220 CAVOK 21/02 Q1022 NOSIG

TAF TAF EDDF
Valide du 06 à 18h jusqu'au 08 à 00h UTC


061700Z 0618/0724 19007KT CAVOK
BECMG 0620/0622 VRB03KT
BECMG 0706/0708 04007KT



MET'MAP, la Météo Aéronautique d'un coup d'oeil ! - Copyright ORBIFLY Décembre 2007 - Disclaimer

ORBIFLY MET'MAP TEAM :

Programmation & Développement : Alexandra Zaïnal
Sur une idée originale de : Baudouin d'Aumeries
Assistance à la programmation : Marc-Olivier Méhu
Soutien technique & logistique : Manuel Goepfert

Contact : metmap@orbifly.com




SOURCES & CREDITS :

   NOAA